STARLINK-2226

Last updated on April 24, 2021, 12:02 a.m. UTC

1 48010U 21024AK  21113.25001157 -.01178675  00000-0 -18933-1 0  9993
2 48010  53.0463  56.1357 0001092  81.6814 220.6249 15.55385668  1810
UTC
Height (km)
Latitude
Longitude
Inclination
Orbital Period
UTC large
Height (km)
Speed (km/s)
/
Latitude / Longitude
Inclination (degrees)
Orbital Period (minutes)
Azimuth
Elevation
Range (km)
Doppler Factor
iOS Compass Heading
iOS Angle

Next 30 passes for location: Hong Kong

Rise time Rise Azimuth (degrees) Set time Set Azimuth (degrees) Duration Max altitude (degrees)

No matching passes for this satellites